Regional Weather Roundup
Issued by NWS

Home | Current Version | Previous Version | Graphics & Text | Print | Product List | Glossary On
Versions: 1 2 3 4 5 6 7 8 9 10 11 12 13 14 15 16 17 18 19 20 21 22 23 24 25 26 27 28 29 30 31 32 33 34 35 36 37 38 39 40 41 42 43 44 45 46 47 48 49 50
000
ASUS43 KTOP 222259
RWRKS

WEATHER ROUNDUP FOR KANSAS
NATIONAL WEATHER SERVICE GOODLAND KS
600 PM CDT MON SEP 22 2014

NOTE:  "FAIR" INDICATES FEW OR NO CLOUDS BELOW 12,000 FEET WITH NO
SIGNIFICANT WEATHER AND/OR OBSTRUCTIONS TO VISIBILITY.

KSZ001>006-013>018-027>032-041>047-230000-
NORTHWEST KANSAS

CITY           SKY/WX    TMP DP  RH WIND       PRES   REMARKS
GOODLAND       LGT RAIN  71  54  54 S25G37    30.08F
HAYS           PTSUNNY   77  45  31 SE15      30.15F
HILL CITY      PTSUNNY   77  44  30 SE13      30.14F
RUSSELL        MOSUNNY   74  47  38 SE13      30.16F
$$

KSZ061>065-074>080-084>089-230000-
SOUTHWEST KANSAS

CITY           SKY/WX    TMP DP  RH WIND       PRES   REMARKS
DODGE CITY     MOSUNNY   78  43  28 S21       30.17F
ELKHART          N/A     76  54  46 S15         N/A
GARDEN CITY    PTSUNNY   75  46  35 S14G25    30.15F
GREAT BEND     MOSUNNY   79  43  27 SE13G18   30.16F
LIBERAL        PTSUNNY   79  48  34 SE16      30.18F
PRATT          MOSUNNY   77  36  22 S10       30.19F
$$

KSZ066>073-081>083-090>101-230000-
SOUTHEAST KANSAS

CITY           SKY/WX    TMP DP  RH WIND       PRES   REMARKS
CHANUTE        MOSUNNY   71  54  54 SE5       30.22F
COFFEYVILLE    SUNNY     73  53  49 E6        30.20F
HUTCHINSON     MOSUNNY   77  45  32 SE5       30.18F
NEWTON         SUNNY     75  43  31 S8        30.21F
PARSONS        MOSUNNY   74  53  48 VRB3      30.22F
WICHITA INTL   MOSUNNY   78  45  30 SE7       30.18F
WICHITA JABRA  SUNNY     76  44  32 SE8       30.19F
WINFIELD       SUNNY     75  49  39 SE9       30.20F
$$

KSZ007>012-019>026-033>040-048>060-102>105-230000-
NORTHEAST KANSAS

CITY           SKY/WX    TMP DP  RH WIND       PRES   REMARKS
CONCORDIA      MOSUNNY   70  48  45 S8        30.18F
EMPORIA        MOSUNNY   71  51  49 E6        30.21F
LAWRENCE       MOSUNNY   73  50  44 SE3       30.22F
MANHATTAN      MOSUNNY   73  49  42 S9        30.20F
OLATHE IND     SUNNY     71  52  50 S6        30.23F
OLATHE EXE     SUNNY     71  51  49 SE6       30.22F
SALINA         MOSUNNY   76  48  37 SE10      30.18F
TOPEKA BILLARD MOSUNNY   74  51  44 E6        30.22S
TOPEKA FORBES  MOSUNNY   74  50  42 SE3       30.22S
$$


USA.gov is the U.S. government's official web portal to all federal, state and local government web resources and services.